Location: Noverd
(38.0910°N, 121.6877°W)
Time: 06:39:57
(UTC+00:00)

Cosmos 1503 Rocket - Pass Details

Date: 13 February 2026
Orbit: 748 x 787 km, 74.0° (Epoch: 9 March)

Event Time Altitude Azimuth Distance (km) Brightness Sun altitude
Exits shadow 13:47:57 - 224° (SW) 2,526 6.3 -14.5°
Reaches altitude 10° 13:48:41 10° 227° (SW) 2,267 6.1 -14.4°
Maximum altitude 13:53:25 37° 294° (WNW) 1,171 4.5 -13.5°
Drops below altitude 10° 13:58:13 10° 2° (N) 2,300 6.4 -12.5°
Sets 14:00:47 0° 10° (N) 3,236 7.3 -12.0°
